owner,sensor,date,latitude,longitude,vertical_datum,wind_speed,wind_to_direction,wind_speed_of_gust,qcFlag 
DISL,ioos:station:DISL:BSCA:1,2015-07-01T00:00:00Z,30.3288,-87.8293,0.0,3.3,171.7,-9999.0,'1111122,1111122,1111122' 
DISL,ioos:station:DISL:BSCA:1,2015-07-01T00:30:00Z,30.3288,-87.8293,0.0,3.12,157.2,-9999.0,'1111122,1111122,1111122' 
DISL,ioos:station:DISL:BSCA:1,2015-07-01T01:00:00Z,30.3288,-87.8293,0.0,3.46,165.7,-9999.0,'1111122,1111122,1111122' 
DISL,ioos:station:DISL:BSCA:1,2015-07-01T01:30:00Z,30.3288,-87.8293,0.0,3.91,160.6,-9999.0,'1111122,1111122,1111122' 
DISL,ioos:station:DISL:BSCA:1,2015-07-01T02:00:00Z,30.3288,-87.8293,0.0,4.49,175.2,-9999.0,'1111122,1111122,1111122' 
DISL,ioos:station:DISL:BSCA:1,2015-07-01T02:30:00Z,30.3288,-87.8293,0.0,5.21,190.0,-9999.0,'1111122,1111122,1111122' 
DISL,ioos:station:DISL:BSCA:1,2015-07-01T03:00:00Z,30.3288,-87.8293,0.0,5.84,202.2,-9999.0,'1111122,1111122,1111122' 
DISL,ioos:station:DISL:BSCA:1,2015-07-01T03:30:00Z,30.3288,-87.8293,0.0,6.13,215.7,-9999.0,'1111122,1111122,1111122' 
DISL,ioos:station:DISL:BSCA:1,2015-07-01T04:00:00Z,30.3288,-87.8293,0.0,5.96,224.1,-9999.0,'1111122,1111122,1111122' 
DISL,ioos:station:DISL:BSCA:1,2015-07-01T04:30:00Z,30.3288,-87.8293,0.0,6.02,244.6,-9999.0,'1111122,1111122,1111122' 
DISL,ioos:station:DISL:BSCA:1,2015-07-01T05:00:00Z,30.3288,-87.8293,0.0,5.76,270.1,-9999.0,'1111122,1111122,1111122' 
DISL,ioos:station:DISL:BSCA:1,2015-07-01T05:30:00Z,30.3288,-87.8293,0.0,6.43,283.2,-9999.0,'1111122,1111122,1111122' 
DISL,ioos:station:DISL:BSCA:1,2015-07-01T06:00:00Z,30.3288,-87.8293,0.0,6.29,273.6,-9999.0,'1111122,1111122,1111122' 
DISL,ioos:station:DISL:BSCA:1,2015-07-01T06:30:00Z,30.3288,-87.8293,0.0,7.43,274.3,-9999.0,'1111122,1111122,1111122' 
DISL,ioos:station:DISL:BSCA:1,2015-07-01T07:00:00Z,30.3288,-87.8293,0.0,6.8,281.9,-9999.0,'1111122,1111122,1111122' 
DISL,ioos:station:DISL:BSCA:1,2015-07-01T07:30:00Z,30.3288,-87.8293,0.0,6.75,284.6,-9999.0,'1111122,1111122,1111122' 
DISL,ioos:station:DISL:BSCA:1,2015-07-01T08:00:00Z,30.3288,-87.8293,0.0,4.8,262.1,-9999.0,'1111122,1111122,1111122' 
DISL,ioos:station:DISL:BSCA:1,2015-07-01T08:30:00Z,30.3288,-87.8293,0.0,4.23,269.2,-9999.0,'1111122,1111122,1111122' 
DISL,ioos:station:DISL:BSCA:1,2015-07-01T09:00:00Z,30.3288,-87.8293,0.0,4.52,282.0,-9999.0,'1111122,1111122,1111122' 
DISL,ioos:station:DISL:BSCA:1,2015-07-01T09:30:00Z,30.3288,-87.8293,0.0,2.48,11.72,-9999.0,'1111122,1111122,1111122' 
DISL,ioos:station:DISL:BSCA:1,2015-07-01T10:00:00Z,30.3288,-87.8293,0.0,3.11,46.02,-9999.0,'1111122,1111122,1111122' 
DISL,ioos:station:DISL:BSCA:1,2015-07-01T10:30:00Z,30.3288,-87.8293,0.0,2.92,45.38,-9999.0,'1111122,1111122,1111122' 
DISL,ioos:station:DISL:BSCA:1,2015-07-01T11:00:00Z,30.3288,-87.8293,0.0,1.56,8.54,-9999.0,'1111122,1111122,1111122' 
DISL,ioos:station:DISL:BSCA:1,2015-07-01T11:30:00Z,30.3288,-87.8293,0.0,3.5,354.0,-9999.0,'1111122,1111122,1111122' 
DISL,ioos:station:DISL:BSCA:1,2015-07-01T12:00:00Z,30.3288,-87.8293,0.0,2.29,282.8,-9999.0,'1111122,1111122,1111122' 
DISL,ioos:station:DISL:BSCA:1,2015-07-01T12:30:00Z,30.3288,-87.8293,0.0,4.0,285.2,-9999.0,'1111122,1111122,1111122' 
DISL,ioos:station:DISL:BSCA:1,2015-07-01T13:00:00Z,30.3288,-87.8293,0.0,3.58,293.7,-9999.0,'1111122,1111122,1111122' 
DISL,ioos:station:DISL:BSCA:1,2015-07-01T13:30:00Z,30.3288,-87.8293,0.0,3.54,278.9,-9999.0,'1111122,1111122,1111122' 
DISL,ioos:station:DISL:BSCA:1,2015-07-01T14:00:00Z,30.3288,-87.8293,0.0,2.57,265.6,-9999.0,'1111122,1111122,1111122' 
DISL,ioos:station:DISL:BSCA:1,2015-07-01T14:30:00Z,30.3288,-87.8293,0.0,2.15,223.8,-9999.0,'1111122,1111122,1111122' 
DISL,ioos:station:DISL:BSCA:1,2015-07-01T15:00:00Z,30.3288,-87.8293,0.0,2.85,204.1,-9999.0,'1111122,1111122,1111122' 
DISL,ioos:station:DISL:BSCA:1,2015-07-01T15:30:00Z,30.3288,-87.8293,0.0,1.88,238.5,-9999.0,'1111122,1111122,1111122' 
DISL,ioos:station:DISL:BSCA:1,2015-07-01T16:00:00Z,30.3288,-87.8293,0.0,2.75,254.4,-9999.0,'1111122,1111122,1111122' 
DISL,ioos:station:DISL:BSCA:1,2015-07-01T16:30:00Z,30.3288,-87.8293,0.0,2.96,245.3,-9999.0,'1111122,1111122,1111122' 
DISL,ioos:station:DISL:BSCA:1,2015-07-01T17:00:00Z,30.3288,-87.8293,0.0,3.23,225.6,-9999.0,'1111122,1111122,1111122' 
DISL,ioos:station:DISL:BSCA:1,2015-07-01T17:30:00Z,30.3288,-87.8293,0.0,4.64,213.0,-9999.0,'1111122,1111122,1111122' 
DISL,ioos:station:DISL:BSCA:1,2015-07-01T18:00:00Z,30.3288,-87.8293,0.0,4.43,217.9,-9999.0,'1111122,1111122,1111122' 
DISL,ioos:station:DISL:BSCA:1,2015-07-01T18:30:00Z,30.3288,-87.8293,0.0,4.36,219.6,-9999.0,'1111122,1111122,1111122' 
DISL,ioos:station:DISL:BSCA:1,2015-07-01T19:00:00Z,30.3288,-87.8293,0.0,4.85,217.6,-9999.0,'1111122,1111122,1111122' 
DISL,ioos:station:DISL:BSCA:1,2015-07-01T19:30:00Z,30.3288,-87.8293,0.0,4.48,213.0,-9999.0,'1111122,1111122,1111122' 
DISL,ioos:station:DISL:BSCA:1,2015-07-01T20:00:00Z,30.3288,-87.8293,0.0,5.09,216.5,-9999.0,'1111122,1111122,1111122' 
DISL,ioos:station:DISL:BSCA:1,2015-07-01T20:30:00Z,30.3288,-87.8293,0.0,5.76,233.6,-9999.0,'1111122,1111122,1111122' 
DISL,ioos:station:DISL:BSCA:1,2015-07-01T21:00:00Z,30.3288,-87.8293,0.0,5.71,227.3,-9999.0,'1111122,1111122,1111122' 
DISL,ioos:station:DISL:BSCA:1,2015-07-01T21:30:00Z,30.3288,-87.8293,0.0,7.2,232.5,-9999.0,'1111122,1111122,1111122' 
DISL,ioos:station:DISL:BSCA:1,2015-07-01T22:00:00Z,30.3288,-87.8293,0.0,8.45,234.1,-9999.0,'1111122,1111122,1111122' 
DISL,ioos:station:DISL:BSCA:1,2015-07-01T22:30:00Z,30.3288,-87.8293,0.0,12.53,261.0,-9999.0,'1111122,1111122,1111122' 
DISL,ioos:station:DISL:BSCA:1,2015-07-01T23:00:00Z,30.3288,-87.8293,0.0,9.41,285.0,-9999.0,'1111122,1111122,1111122' 
DISL,ioos:station:DISL:BSCA:1,2015-07-01T23:30:00Z,30.3288,-87.8293,0.0,6.07,298.9,-9999.0,'1111122,1111122,1111122' 
DISL,ioos:station:DISL:BSCA:1,2015-07-02T00:00:00Z,30.3288,-87.8293,0.0,6.88,305.1,-9999.0,'1111122,1111122,1111122' 
DISL,ioos:station:DISL:BSCA:1,2015-07-02T00:30:00Z,30.3288,-87.8293,0.0,5.15,326.7,-9999.0,'1111122,1111122,1111122' 
DISL,ioos:station:DISL:BSCA:1,2015-07-02T01:00:00Z,30.3288,-87.8293,0.0,5.62,313.5,-9999.0,'1111122,1111122,1111122' 
DISL,ioos:station:DISL:BSCA:1,2015-07-02T01:30:00Z,30.3288,-87.8293,0.0,5.94,317.2,-9999.0,'1111122,1111122,1111122' 
DISL,ioos:station:DISL:BSCA:1,2015-07-02T02:00:00Z,30.3288,-87.8293,0.0,5.97,308.1,-9999.0,'1111122,1111122,1111122' 
DISL,ioos:station:DISL:BSCA:1,2015-07-02T02:30:00Z,30.3288,-87.8293,0.0,5.86,304.6,-9999.0,'1111122,1111122,1111122' 
DISL,ioos:station:DISL:BSCA:1,2015-07-02T03:00:00Z,30.3288,-87.8293,0.0,3.87,285.3,-9999.0,'1111122,1111122,1111122' 
DISL,ioos:station:DISL:BSCA:1,2015-07-02T03:30:00Z,30.3288,-87.8293,0.0,4.3,279.1,-9999.0,'1111122,1111122,1111122' 
DISL,ioos:station:DISL:BSCA:1,2015-07-02T04:00:00Z,30.3288,-87.8293,0.0,4.3,263.5,-9999.0,'1111122,1111122,1111122' 
DISL,ioos:station:DISL:BSCA:1,2015-07-02T04:30:00Z,30.3288,-87.8293,0.0,2.79,254.0,-9999.0,'1111122,1111122,1111122' 
DISL,ioos:station:DISL:BSCA:1,2015-07-02T05:00:00Z,30.3288,-87.8293,0.0,1.59,255.7,-9999.0,'1111122,1111122,1111122' 
DISL,ioos:station:DISL:BSCA:1,2015-07-02T05:30:00Z,30.3288,-87.8293,0.0,3.04,235.9,-9999.0,'1111122,1111122,1111122' 
DISL,ioos:station:DISL:BSCA:1,2015-07-02T06:00:00Z,30.3288,-87.8293,0.0,3.69,218.2,-9999.0,'1111122,1111122,1111122' 
DISL,ioos:station:DISL:BSCA:1,2015-07-02T06:30:00Z,30.3288,-87.8293,0.0,3.98,225.0,-9999.0,'1111122,1111122,1111122' 
DISL,ioos:station:DISL:BSCA:1,2015-07-02T07:00:00Z,30.3288,-87.8293,0.0,4.23,231.3,-9999.0,'1111122,1111122,1111122' 
DISL,ioos:station:DISL:BSCA:1,2015-07-02T07:30:00Z,30.3288,-87.8293,0.0,4.22,242.0,-9999.0,'1111122,1111122,1111122' 
DISL,ioos:station:DISL:BSCA:1,2015-07-02T08:00:00Z,30.3288,-87.8293,0.0,4.05,233.4,-9999.0,'1111122,1111122,1111122' 
DISL,ioos:station:DISL:BSCA:1,2015-07-02T08:30:00Z,30.3288,-87.8293,0.0,4.2,238.5,-9999.0,'1111122,1111122,1111122' 
DISL,ioos:station:DISL:BSCA:1,2015-07-02T09:00:00Z,30.3288,-87.8293,0.0,3.91,229.8,-9999.0,'1111122,1111122,1111122' 
DISL,ioos:station:DISL:BSCA:1,2015-07-02T09:30:00Z,30.3288,-87.8293,0.0,4.65,232.2,-9999.0,'1111122,1111122,1111122' 
DISL,ioos:station:DISL:BSCA:1,2015-07-02T10:00:00Z,30.3288,-87.8293,0.0,5.04,235.7,-9999.0,'1111122,1111122,1111122' 
DISL,ioos:station:DISL:BSCA:1,2015-07-02T10:30:00Z,30.3288,-87.8293,0.0,3.97,235.1,-9999.0,'1111122,1111122,1111122' 
DISL,ioos:station:DISL:BSCA:1,2015-07-02T11:00:00Z,30.3288,-87.8293,0.0,2.69,210.0,-9999.0,'1111122,1111122,1111122' 
DISL,ioos:station:DISL:BSCA:1,2015-07-02T11:30:00Z,30.3288,-87.8293,0.0,4.16,192.9,-9999.0,'1111122,1111122,1111122' 
DISL,ioos:station:DISL:BSCA:1,2015-07-02T12:00:00Z,30.3288,-87.8293,0.0,8.57,238.8,-9999.0,'1111122,1111122,1111122' 
DISL,ioos:station:DISL:BSCA:1,2015-07-02T12:30:00Z,30.3288,-87.8293,0.0,8.39,256.8,-9999.0,'1111122,1111122,1111122' 
DISL,ioos:station:DISL:BSCA:1,2015-07-02T13:00:00Z,30.3288,-87.8293,0.0,6.22,250.5,-9999.0,'1111122,1111122,1111122' 
DISL,ioos:station:DISL:BSCA:1,2015-07-02T13:30:00Z,30.3288,-87.8293,0.0,5.6,247.0,-9999.0,'1111122,1111122,1111122' 
DISL,ioos:station:DISL:BSCA:1,2015-07-02T14:00:00Z,30.3288,-87.8293,0.0,6.21,257.7,-9999.0,'1111122,1111122,1111122' 
DISL,ioos:station:DISL:BSCA:1,2015-07-02T14:30:00Z,30.3288,-87.8293,0.0,5.67,243.2,-9999.0,'1111122,1111122,1111122' 
DISL,ioos:station:DISL:BSCA:1,2015-07-02T15:00:00Z,30.3288,-87.8293,0.0,5.63,241.2,-9999.0,'1111122,1111122,1111122' 
DISL,ioos:station:DISL:BSCA:1,2015-07-02T15:30:00Z,30.3288,-87.8293,0.0,4.81,240.9,-9999.0,'1111122,1111122,1111122' 
DISL,ioos:station:DISL:BSCA:1,2015-07-02T16:00:00Z,30.3288,-87.8293,0.0,3.71,247.6,-9999.0,'1111122,1111122,1111122' 
DISL,ioos:station:DISL:BSCA:1,2015-07-02T16:30:00Z,30.3288,-87.8293,0.0,3.42,241.6,-9999.0,'1111122,1111122,1111122' 
DISL,ioos:station:DISL:BSCA:1,2015-07-02T17:00:00Z,30.3288,-87.8293,0.0,4.71,267.9,-9999.0,'1111122,1111122,1111122' 
DISL,ioos:station:DISL:BSCA:1,2015-07-02T17:30:00Z,30.3288,-87.8293,0.0,3.96,262.3,-9999.0,'1111122,1111122,1111122' 
DISL,ioos:station:DISL:BSCA:1,2015-07-02T18:00:00Z,30.3288,-87.8293,0.0,4.16,268.4,-9999.0,'1111122,1111122,1111122' 
DISL,ioos:station:DISL:BSCA:1,2015-07-02T18:30:00Z,30.3288,-87.8293,0.0,3.6,248.0,-9999.0,'1111122,1111122,1111122' 
DISL,ioos:station:DISL:BSCA:1,2015-07-02T19:00:00Z,30.3288,-87.8293,0.0,4.57,259.8,-9999.0,'1111122,1111122,1111122' 
DISL,ioos:station:DISL:BSCA:1,2015-07-02T19:30:00Z,30.3288,-87.8293,0.0,4.54,259.7,-9999.0,'1111122,1111122,1111122' 
DISL,ioos:station:DISL:BSCA:1,2015-07-02T20:00:00Z,30.3288,-87.8293,0.0,5.01,252.3,-9999.0,'1111122,1111122,1111122' 
DISL,ioos:station:DISL:BSCA:1,2015-07-02T20:30:00Z,30.3288,-87.8293,0.0,6.68,255.8,-9999.0,'1111122,1111122,1111122' 
DISL,ioos:station:DISL:BSCA:1,2015-07-02T21:00:00Z,30.3288,-87.8293,0.0,6.14,256.5,-9999.0,'1111122,1111122,1111122' 
DISL,ioos:station:DISL:BSCA:1,2015-07-02T21:30:00Z,30.3288,-87.8293,0.0,6.34,249.4,-9999.0,'1111122,1111122,1111122' 
DISL,ioos:station:DISL:BSCA:1,2015-07-02T22:00:00Z,30.3288,-87.8293,0.0,6.57,246.4,-9999.0,'1111122,1111122,1111122' 
DISL,ioos:station:DISL:BSCA:1,2015-07-02T22:30:00Z,30.3288,-87.8293,0.0,6.26,249.1,-9999.0,'1111122,1111122,1111122' 
DISL,ioos:station:DISL:BSCA:1,2015-07-02T23:00:00Z,30.3288,-87.8293,0.0,6.51,244.4,-9999.0,'1111122,1111122,1111122' 
DISL,ioos:station:DISL:BSCA:1,2015-07-02T23:30:00Z,30.3288,-87.8293,0.0,6.7,245.0,-9999.0,'1111122,1111122,1111122' 
DISL,ioos:station:DISL:BSCA:1,2015-07-03T00:00:00Z,30.3288,-87.8293,0.0,6.4,236.4,-9999.0,'1111122,1111122,1111122' 
DISL,ioos:station:DISL:BSCA:1,2015-07-03T00:30:00Z,30.3288,-87.8293,0.0,6.05,229.6,-9999.0,'1111122,1111122,1111122' 
DISL,ioos:station:DISL:BSCA:1,2015-07-03T01:00:00Z,30.3288,-87.8293,0.0,5.47,231.9,-9999.0,'1111122,1111122,1111122' 
DISL,ioos:station:DISL:BSCA:1,2015-07-03T01:30:00Z,30.3288,-87.8293,0.0,5.21,239.0,-9999.0,'1111122,1111122,1111122' 
DISL,ioos:station:DISL:BSCA:1,2015-07-03T02:00:00Z,30.3288,-87.8293,0.0,5.15,225.3,-9999.0,'1111122,1111122,1111122' 
DISL,ioos:station:DISL:BSCA:1,2015-07-03T02:30:00Z,30.3288,-87.8293,0.0,5.1,223.4,-9999.0,'1111122,1111122,1111122' 
DISL,ioos:station:DISL:BSCA:1,2015-07-03T03:00:00Z,30.3288,-87.8293,0.0,5.8,214.9,-9999.0,'1111122,1111122,1111122' 
DISL,ioos:station:DISL:BSCA:1,2015-07-03T03:30:00Z,30.3288,-87.8293,0.0,5.69,217.7,-9999.0,'1111122,1111122,1111122' 
DISL,ioos:station:DISL:BSCA:1,2015-07-03T04:00:00Z,30.3288,-87.8293,0.0,5.89,219.3,-9999.0,'1111122,1111122,1111122' 
DISL,ioos:station:DISL:BSCA:1,2015-07-03T04:30:00Z,30.3288,-87.8293,0.0,6.12,229.0,-9999.0,'1111122,1111122,1111122' 
DISL,ioos:station:DISL:BSCA:1,2015-07-03T05:00:00Z,30.3288,-87.8293,0.0,5.93,226.1,-9999.0,'1111122,1111122,1111122' 
DISL,ioos:station:DISL:BSCA:1,2015-07-03T05:30:00Z,30.3288,-87.8293,0.0,6.29,230.3,-9999.0,'1111122,1111122,1111122' 
DISL,ioos:station:DISL:BSCA:1,2015-07-03T06:00:00Z,30.3288,-87.8293,0.0,5.36,229.2,-9999.0,'1111122,1111122,1111122' 
DISL,ioos:station:DISL:BSCA:1,2015-07-03T06:30:00Z,30.3288,-87.8293,0.0,5.6,226.8,-9999.0,'1111122,1111122,1111122' 
DISL,ioos:station:DISL:BSCA:1,2015-07-03T07:00:00Z,30.3288,-87.8293,0.0,5.32,234.0,-9999.0,'1111122,1111122,1111122' 
DISL,ioos:station:DISL:BSCA:1,2015-07-03T07:30:00Z,30.3288,-87.8293,0.0,5.68,238.2,-9999.0,'1111122,1111122,1111122' 
DISL,ioos:station:DISL:BSCA:1,2015-07-03T08:00:00Z,30.3288,-87.8293,0.0,5.83,238.3,-9999.0,'1111122,1111122,1111122' 
DISL,ioos:station:DISL:BSCA:1,2015-07-03T08:30:00Z,30.3288,-87.8293,0.0,5.78,237.2,-9999.0,'1111122,1111122,1111122' 
DISL,ioos:station:DISL:BSCA:1,2015-07-03T09:00:00Z,30.3288,-87.8293,0.0,5.73,240.4,-9999.0,'1111122,1111122,1111122' 
DISL,ioos:station:DISL:BSCA:1,2015-07-03T09:30:00Z,30.3288,-87.8293,0.0,5.33,239.8,-9999.0,'1111122,1111122,1111122' 
DISL,ioos:station:DISL:BSCA:1,2015-07-03T10:00:00Z,30.3288,-87.8293,0.0,5.86,236.2,-9999.0,'1111122,1111122,1111122' 
DISL,ioos:station:DISL:BSCA:1,2015-07-03T10:30:00Z,30.3288,-87.8293,0.0,5.99,240.0,-9999.0,'1111122,1111122,1111122' 
DISL,ioos:station:DISL:BSCA:1,2015-07-03T11:00:00Z,30.3288,-87.8293,0.0,6.08,248.0,-9999.0,'1111122,1111122,1111122' 
DISL,ioos:station:DISL:BSCA:1,2015-07-03T11:30:00Z,30.3288,-87.8293,0.0,6.12,246.0,-9999.0,'1111122,1111122,1111122' 
DISL,ioos:station:DISL:BSCA:1,2015-07-03T12:00:00Z,30.3288,-87.8293,0.0,5.84,260.8,-9999.0,'1111122,1111122,1111122' 
DISL,ioos:station:DISL:BSCA:1,2015-07-03T12:30:00Z,30.3288,-87.8293,0.0,4.8,263.3,-9999.0,'1111122,1111122,1111122' 
DISL,ioos:station:DISL:BSCA:1,2015-07-03T13:00:00Z,30.3288,-87.8293,0.0,4.65,255.2,-9999.0,'1111122,1111122,1111122' 
DISL,ioos:station:DISL:BSCA:1,2015-07-03T13:30:00Z,30.3288,-87.8293,0.0,4.75,250.8,-9999.0,'1111122,1111122,1111122' 
DISL,ioos:station:DISL:BSCA:1,2015-07-03T14:00:00Z,30.3288,-87.8293,0.0,4.85,254.6,-9999.0,'1111122,1111122,1111122' 
DISL,ioos:station:DISL:BSCA:1,2015-07-03T14:30:00Z,30.3288,-87.8293,0.0,4.37,249.1,-9999.0,'1111122,1111122,1111122' 
DISL,ioos:station:DISL:BSCA:1,2015-07-03T15:00:00Z,30.3288,-87.8293,0.0,3.68,254.8,-9999.0,'1111122,1111122,1111122' 
DISL,ioos:station:DISL:BSCA:1,2015-07-03T15:30:00Z,30.3288,-87.8293,0.0,3.87,272.6,-9999.0,'1111122,1111122,1111122' 
DISL,ioos:station:DISL:BSCA:1,2015-07-03T16:00:00Z,30.3288,-87.8293,0.0,4.07,270.0,-9999.0,'1111122,1111122,1111122' 
DISL,ioos:station:DISL:BSCA:1,2015-07-03T16:30:00Z,30.3288,-87.8293,0.0,4.1,260.1,-9999.0,'1111122,1111122,1111122' 
DISL,ioos:station:DISL:BSCA:1,2015-07-03T17:00:00Z,30.3288,-87.8293,0.0,4.12,261.0,-9999.0,'1111122,1111122,1111122' 
DISL,ioos:station:DISL:BSCA:1,2015-07-03T17:30:00Z,30.3288,-87.8293,0.0,3.91,262.5,-9999.0,'1111122,1111122,1111122' 
DISL,ioos:station:DISL:BSCA:1,2015-07-03T18:00:00Z,30.3288,-87.8293,0.0,4.09,264.9,-9999.0,'1111122,1111122,1111122' 
DISL,ioos:station:DISL:BSCA:1,2015-07-03T18:30:00Z,30.3288,-87.8293,0.0,4.07,252.1,-9999.0,'1111122,1111122,1111122' 
DISL,ioos:station:DISL:BSCA:1,2015-07-03T19:00:00Z,30.3288,-87.8293,0.0,4.6,244.0,99.0,'11111222,11111222,11144222' 
DISL,ioos:station:DISL:BSCA:1,2015-07-03T19:30:00Z,30.3288,-87.8293,0.0,4.5,239.0,99.0,'11111222,11111222,11144222' 
DISL,ioos:station:DISL:BSCA:1,2015-07-03T20:00:00Z,30.3288,-87.8293,0.0,5.1,221.0,99.0,'11111222,11111222,11144222' 
DISL,ioos:station:DISL:BSCA:1,2015-07-03T20:30:00Z,30.3288,-87.8293,0.0,5.7,219.0,99.0,'11111222,11111222,11144222' 
DISL,ioos:station:DISL:BSCA:1,2015-07-03T21:00:00Z,30.3288,-87.8293,0.0,6.9,217.0,99.0,'11111222,11111222,11144222' 
DISL,ioos:station:DISL:BSCA:1,2015-07-03T21:30:00Z,30.3288,-87.8293,0.0,5.8,215.0,99.0,'11111222,11111222,11144222' 
DISL,ioos:station:DISL:BSCA:1,2015-07-03T22:00:00Z,30.3288,-87.8293,0.0,4.8,206.0,99.0,'11111222,11111222,11144222' 
DISL,ioos:station:DISL:BSCA:1,2015-07-03T22:30:00Z,30.3288,-87.8293,0.0,4.6,211.0,99.0,'11111222,11111222,11144222' 
DISL,ioos:station:DISL:BSCA:1,2015-07-03T23:00:00Z,30.3288,-87.8293,0.0,5.1,210.0,99.0,'11111222,11111222,11144222' 
DISL,ioos:station:DISL:BSCA:1,2015-07-03T23:30:00Z,30.3288,-87.8293,0.0,6.1,209.0,99.0,'11111222,11111222,11144222' 
DISL,ioos:station:DISL:BSCA:1,2015-07-04T00:00:00Z,30.3288,-87.8293,0.0,5.9,208.0,99.0,'11111222,11111222,11144222' 
DISL,ioos:station:DISL:BSCA:1,2015-07-04T00:30:00Z,30.3288,-87.8293,0.0,5.6,211.0,99.0,'11111222,11111222,11144222' 
DISL,ioos:station:DISL:BSCA:1,2015-07-04T01:00:00Z,30.3288,-87.8293,0.0,5.8,208.0,99.0,'11111222,11111222,11144222' 
DISL,ioos:station:DISL:BSCA:1,2015-07-04T01:30:00Z,30.3288,-87.8293,0.0,6.3,214.0,99.0,'11111222,11111222,11144222' 
DISL,ioos:station:DISL:BSCA:1,2015-07-04T02:00:00Z,30.3288,-87.8293,0.0,6.0,207.0,99.0,'11111222,11111222,11144222' 
DISL,ioos:station:DISL:BSCA:1,2015-07-04T02:30:00Z,30.3288,-87.8293,0.0,6.7,205.0,99.0,'11111222,11111222,11144222' 
DISL,ioos:station:DISL:BSCA:1,2015-07-04T03:00:00Z,30.3288,-87.8293,0.0,6.0,210.0,99.0,'11111222,11111222,11144222' 
DISL,ioos:station:DISL:BSCA:1,2015-07-04T03:30:00Z,30.3288,-87.8293,0.0,5.6,219.0,99.0,'11111222,11111222,11144222' 
DISL,ioos:station:DISL:BSCA:1,2015-07-04T04:00:00Z,30.3288,-87.8293,0.0,5.4,209.0,99.0,'11111222,11111222,11144222' 
DISL,ioos:station:DISL:BSCA:1,2015-07-04T04:30:00Z,30.3288,-87.8293,0.0,5.5,212.0,99.0,'11111222,11111222,11144222' 
DISL,ioos:station:DISL:BSCA:1,2015-07-04T05:00:00Z,30.3288,-87.8293,0.0,5.9,207.0,99.0,'11111222,11111222,11144222' 
DISL,ioos:station:DISL:BSCA:1,2015-07-04T05:30:00Z,30.3288,-87.8293,0.0,6.2,213.0,99.0,'11111222,11111222,11144222' 
DISL,ioos:station:DISL:BSCA:1,2015-07-04T06:00:00Z,30.3288,-87.8293,0.0,6.2,214.0,99.0,'11111222,11111222,11144222' 
DISL,ioos:station:DISL:BSCA:1,2015-07-04T06:30:00Z,30.3288,-87.8293,0.0,5.8,217.0,99.0,'11111222,11111222,11144222' 
DISL,ioos:station:DISL:BSCA:1,2015-07-04T07:00:00Z,30.3288,-87.8293,0.0,6.0,212.0,99.0,'11111222,11111222,11144222' 
DISL,ioos:station:DISL:BSCA:1,2015-07-04T07:30:00Z,30.3288,-87.8293,0.0,6.3,221.0,99.0,'11111222,11111222,11144222' 
DISL,ioos:station:DISL:BSCA:1,2015-07-04T08:00:00Z,30.3288,-87.8293,0.0,6.2,220.0,99.0,'11111222,11111222,11144222' 
DISL,ioos:station:DISL:BSCA:1,2015-07-04T08:30:00Z,30.3288,-87.8293,0.0,6.8,225.0,99.0,'11111222,11111222,11144222' 
DISL,ioos:station:DISL:BSCA:1,2015-07-04T09:00:00Z,30.3288,-87.8293,0.0,6.6,228.0,99.0,'11111222,11111222,11144222' 
DISL,ioos:station:DISL:BSCA:1,2015-07-04T09:30:00Z,30.3288,-87.8293,0.0,6.7,231.0,99.0,'11111222,11111222,11144222' 
DISL,ioos:station:DISL:BSCA:1,2015-07-04T10:00:00Z,30.3288,-87.8293,0.0,6.2,233.0,99.0,'11111222,11111222,11144222' 
DISL,ioos:station:DISL:BSCA:1,2015-07-04T10:30:00Z,30.3288,-87.8293,0.0,5.6,238.0,99.0,'11111222,11111222,11144222' 
DISL,ioos:station:DISL:BSCA:1,2015-07-04T11:00:00Z,30.3288,-87.8293,0.0,5.8,247.0,99.0,'11111222,11111222,11144222' 
DISL,ioos:station:DISL:BSCA:1,2015-07-04T11:30:00Z,30.3288,-87.8293,0.0,7.4,220.0,99.0,'11111222,11111222,11144222' 
DISL,ioos:station:DISL:BSCA:1,2015-07-04T12:00:00Z,30.3288,-87.8293,0.0,5.8,246.0,99.0,'11111222,11111222,11144222' 
DISL,ioos:station:DISL:BSCA:1,2015-07-04T12:30:00Z,30.3288,-87.8293,0.0,6.5,267.0,99.0,'11111222,11111222,11144222' 
DISL,ioos:station:DISL:BSCA:1,2015-07-04T13:00:00Z,30.3288,-87.8293,0.0,7.0,280.0,99.0,'11111222,11111222,11144222' 
DISL,ioos:station:DISL:BSCA:1,2015-07-04T13:30:00Z,30.3288,-87.8293,0.0,5.0,262.0,99.0,'11111222,11111222,11144222' 
DISL,ioos:station:DISL:BSCA:1,2015-07-04T14:00:00Z,30.3288,-87.8293,0.0,5.0,264.0,99.0,'11111222,11111222,11144222' 
DISL,ioos:station:DISL:BSCA:1,2015-07-04T14:30:00Z,30.3288,-87.8293,0.0,5.7,258.0,99.0,'11111222,11111222,11144222' 
DISL,ioos:station:DISL:BSCA:1,2015-07-04T15:00:00Z,30.3288,-87.8293,0.0,5.0,247.0,99.0,'11111222,11111222,11144222' 
DISL,ioos:station:DISL:BSCA:1,2015-07-04T15:30:00Z,30.3288,-87.8293,0.0,4.7,241.0,99.0,'11111222,11111222,11144222' 
DISL,ioos:station:DISL:BSCA:1,2015-07-04T16:00:00Z,30.3288,-87.8293,0.0,5.1,248.0,99.0,'11111222,11111222,11144222' 
DISL,ioos:station:DISL:BSCA:1,2015-07-04T16:30:00Z,30.3288,-87.8293,0.0,4.7,253.0,99.0,'11111222,11111222,11144222' 
DISL,ioos:station:DISL:BSCA:1,2015-07-04T17:00:00Z,30.3288,-87.8293,0.0,5.5,246.0,99.0,'11111222,11111222,11144222' 
DISL,ioos:station:DISL:BSCA:1,2015-07-04T17:30:00Z,30.3288,-87.8293,0.0,5.4,249.0,99.0,'11111222,11111222,11144222' 
DISL,ioos:station:DISL:BSCA:1,2015-07-04T18:00:00Z,30.3288,-87.8293,0.0,5.4,249.0,99.0,'11111222,11111222,11144222' 
DISL,ioos:station:DISL:BSCA:1,2015-07-04T18:30:00Z,30.3288,-87.8293,0.0,4.5,242.0,99.0,'11111222,11111222,11144222' 
DISL,ioos:station:DISL:BSCA:1,2015-07-04T19:00:00Z,30.3288,-87.8293,0.0,5.5,220.0,99.0,'11111222,11111222,11144222' 
DISL,ioos:station:DISL:BSCA:1,2015-07-04T19:30:00Z,30.3288,-87.8293,0.0,5.2,217.0,99.0,'11111222,11111222,11144222' 
DISL,ioos:station:DISL:BSCA:1,2015-07-04T20:00:00Z,30.3288,-87.8293,0.0,6.0,218.0,99.0,'11111222,11111222,11144222' 
DISL,ioos:station:DISL:BSCA:1,2015-07-04T20:30:00Z,30.3288,-87.8293,0.0,5.9,219.0,99.0,'11111222,11111222,11144222' 
DISL,ioos:station:DISL:BSCA:1,2015-07-04T21:00:00Z,30.3288,-87.8293,0.0,6.8,219.0,99.0,'11111222,11111222,11144222' 
DISL,ioos:station:DISL:BSCA:1,2015-07-04T21:30:00Z,30.3288,-87.8293,0.0,6.0,226.0,99.0,'11111222,11111222,11144222' 
DISL,ioos:station:DISL:BSCA:1,2015-07-04T22:00:00Z,30.3288,-87.8293,0.0,5.5,238.0,99.0,'11111222,11111222,11144222' 
DISL,ioos:station:DISL:BSCA:1,2015-07-04T22:30:00Z,30.3288,-87.8293,0.0,4.6,254.0,99.0,'11111222,11111222,11144222' 
DISL,ioos:station:DISL:BSCA:1,2015-07-04T23:00:00Z,30.3288,-87.8293,0.0,3.7,256.0,99.0,'11111222,11111222,11144222' 
DISL,ioos:station:DISL:BSCA:1,2015-07-04T23:30:00Z,30.3288,-87.8293,0.0,3.9,260.0,99.0,'11111222,11111222,11144222' 
DISL,ioos:station:DISL:BSCA:1,2015-07-05T00:00:00Z,30.3288,-87.8293,0.0,6.9,342.0,99.0,'11111222,11111222,11144222' 
DISL,ioos:station:DISL:BSCA:1,2015-07-05T00:30:00Z,30.3288,-87.8293,0.0,8.7,355.0,99.0,'11111222,11111222,11144222' 
DISL,ioos:station:DISL:BSCA:1,2015-07-05T01:00:00Z,30.3288,-87.8293,0.0,1.6,50.0,99.0,'11111222,11111222,11144222' 
DISL,ioos:station:DISL:BSCA:1,2015-07-05T01:30:00Z,30.3288,-87.8293,0.0,0.5,110.0,99.0,'11111222,11111222,11144222' 
DISL,ioos:station:DISL:BSCA:1,2015-07-05T02:00:00Z,30.3288,-87.8293,0.0,3.0,66.0,99.0,'11111222,11111222,11144222' 
DISL,ioos:station:DISL:BSCA:1,2015-07-05T02:30:00Z,30.3288,-87.8293,0.0,1.9,113.0,99.0,'11111222,11111222,11144222' 
DISL,ioos:station:DISL:BSCA:1,2015-07-05T03:00:00Z,30.3288,-87.8293,0.0,2.9,127.0,99.0,'11111222,11111222,11144222' 
DISL,ioos:station:DISL:BSCA:1,2015-07-05T03:30:00Z,30.3288,-87.8293,0.0,3.7,133.0,99.0,'11111222,11111222,11144222' 
DISL,ioos:station:DISL:BSCA:1,2015-07-05T04:00:00Z,30.3288,-87.8293,0.0,4.3,127.0,99.0,'11111222,11111222,11144222' 
DISL,ioos:station:DISL:BSCA:1,2015-07-05T04:30:00Z,30.3288,-87.8293,0.0,3.8,105.0,99.0,'11111222,11111222,11144222' 
DISL,ioos:station:DISL:BSCA:1,2015-07-05T05:00:00Z,30.3288,-87.8293,0.0,2.6,113.0,99.0,'11111222,11111222,11144222' 